Showing default

SKY MEXICO-1, 40664

Orbit data source: Space-Track

SKY MEXICO-1, 40664 is a Mexican payload satellite in GEO that was launched on Wed, 27 May 2015 UTC via an ARIANE 5ECA launch vehicle from the French Guiana (FRGUI). Payloads include a variety of satellites, spacecraft, and rockets equipped with specific instruments for various scientific and technological missions. These include communications satellites like Starlink; space stations such as the ISS; scientific satellites like the Hubble; Earth observation satellites from companies like Planet Labs, Umbra, and HawkEye 360; GPS; miniature CubeSats for education and research; and military/defense satellites.

Loading next visibility...
SKY MEXICO-1 details
Identifier
40664, 2015-026B
Orbit
GEO
Last TLE update1 day ago
Origin
Flag of MXSKYM/DTVLA (MX / MEX)
ManufacturerOATK SSG
MissionOperational Commercial Communications
Bus & MotorGEOSTAR-2, IHI BT-4
Mass3,182 kg wet, 1,260 kg dry
Launch date (UTC)
2015-05-27 (10 years ago)
Launch vehicle
ARIANE 5ECA
Launch site
French Guiana (FRGUI)
Object type
Payload
Rocket body
Debris
Shape & HBRBox + 2 Pan, 22.4 m
Radar Cross Section28.221 m², Large (>1 m²)

Expand to show TLE details & history

TLE from 1 day ago
0 SKY MEXICO-1
1 40664U 15026B   24360.34632694 -.00000207  00000-0  00000-0 0  9996
2 40664   0.0260 338.2307 0002446 311.6597 210.3682  1.00271073 35050
Epoch: 2024-12-25T08:18Z
Definitive object data (Epoch: 2024-12-25T08:18:42.647Z)
Latitude0.01814°
Longitude-78.78125°
Altitude35,795.195 km
Speed3.074 km/s
True Right ascension09h 20m 57s
True Declination0° 01' 05"
Sunlit
Object was in daylight at TLE epoch
Visualization TLE readout
Latitude-0.02273°
Longitude-25.97043°
Altitude35,787.583 km
Speed3.075 km/s
Apparent Right ascension13h 05m 21s
Apparent Declination-6° 09' 57"
Sunlit
Object is in daylight
Visualization observer readout
Local Sidereal Time11:06:55
Azimuth142.363° SSE
Elevation36.445°
Doppler factor1
Orbital elements
Apogee altitude35,798.179 km
Perigee altitude35,777.551 km
Semi-major axis42,166.002 km
Eccentricity0.0002446
Inclination0.026°
RAAN338.2307°
Arg. of periapsis311.6597°
True anomaly210.35403°
Mean anomaly210.3682°
Eccentric anomaly210.36112°
Mean motion0.25067 °/min
BSTARUnknown
Orbital period1436.16 mins
Loading historical data...
40664 neighbors
Authenticating...
Loading maneuver chart data...
Loading historical data...
Loading historical data...
Loading historical data...
Loading historical data...
Loading historical data...
Loading historical data...
Loading historical data...
Other satellites on launch #26 in the year 2015 (2015-05-27 UTC)

SKY MEXICO-1 Visibility forecast

Observer location: undefined°, undefined

Span
Click to sort rows by Start time (UTC) header in descending order
Start Az.
Max El. time (UTC)
Max El. Az.
Max El.
End time (UTC)
End Az.
1440 mins2024-12-26 11:45:31.099Z142.375° SSE2024-12-27 05:32:31.099Z142.298° SSE30.735°2024-12-27 11:45:31.099Z142.381° SSE
|